Location: ?????????
(41.2286°N, 23.0068°E)
Time: 09:45:47
(UTC+00:00)

Cosmos 1378 Rocket - Pass Details

Date: 08 November 2025
Orbit: 595 x 619 km, 82.5° (Epoch: 04 December)

Event Time Altitude Azimuth Distance (km) Brightness Sun altitude
Rises 04:34:05 0° 183° (S) 2,831 7.1 -6.8°
Reaches altitude 10° 04:36:17 10° 181° (S) 1,931 6.3 -6.4°
Maximum altitude 04:40:32 77° 97° (E) 617 3.7 -5.6°
Drops below altitude 10° 04:44:49 10° 11° (N) 1,939 6.0 -4.9°
Sets 04:47:01 0° 10° (N) 2,845 6.9 -4.5°
